Theta_e
353 350 352 351 352 354 354 352 353 355 358 356 358 358 356 356 355 352 354 370 369 369 367 367 367 366 365 362 360 358 357 356 354 355 354 353 353 352 351 351 352 350 351
352 352 352 357 354 353 355 355 358 359 357 358 359 356 355 354 354 356 356 362 371 370 368 366 366 367 367 365 363 361 359 358 357 356 355 354 352 353 351 351 352 353 350
357 362 360 355 354 356 362 361 363 359 356 356 358 355 357 356 357 359 358 356 365 370 369 366 365 366 366 366 366 364 363 360 359 358 356 356 354 352 352 352 353 353 351
359 359 352 354 358 361 357 360 357 353 354 354 353 355 359 358 357 359 357 357 356 356 368 367 364 363 364 364 366 363 364 362 361 360 358 357 356 356 354 352 354 353 353
356 357 352 354 358 354 353 355 355 356 354 354 354 356 356 358 357 356 360 357 357 354 355 367 365 366 364 362 363 362 362 363 362 362 360 358 358 357 356 355 353 353 352
355 355 353 357 357 352 352 355 361 359 358 356 355 352 356 356 359 355 355 354 356 357 356 360 361 363 366 363 361 362 362 361 361 362 363 361 360 359 356 356 354 352 353
357 357 353 353 354 352 355 357 359 358 357 359 353 353 355 354 353 356 356 356 356 355 355 357 359 360 362 363 361 362 361 362 362 362 363 364 362 360 358 355 354 352 352
359 358 360 355 356 351 359 363 366 361 359 359 355 350 344 350 352 349 354 354 355 355 356 361 360 365 362 358 364 362 361 362 360 360 360 363 360 361 360 355 353 353 352
357 358 359 358 358 356 351 364 366 365 359 362 364 354 342 349 347 355 354 352 355 352 351 358 358 363 365 364 362 358 355 356 358 359 360 357 359 357 357 356 353 353 352
355 354 356 358 358 357 367 368 367 367 366 356 356 363 360 357 346 339 346 352 353 348 350 351 354 358 359 364 354 350 349 350 352 354 356 358 358 356 356 357 356 353 352
357 355 357 357 360 368 367 368 365 363 363 356 360 360 358 359 360 348 338 344 347 354 350 351 354 357 356 353 348 347 346 346 347 348 350 352 354 357 357 358 357 357 355
353 357 358 362 366 369 367 364 363 364 363 365 364 364 358 352 348 346 339 343 345 348 350 351 353 354 359 355 345 343 343 343 342 343 344 345 347 349 351 352 354 356 356
350 356 362 365 361 367 365 367 366 365 362 360 359 356 356 355 348 347 348 349 344 349 349 347 349 351 350 349 344 342 340 339 338 339 339 339 340 341 343 344 346 347 349
358 360 362 364 365 367 366 366 364 361 362 358 357 356 352 349 349 349 348 345 343 346 346 344 345 348 349 347 347 341 336 338 337 337 337 337 337 336 337 337 338 338 340
360 363 363 363 364 364 363 363 358 355 355 352 349 352 350 349 354 350 349 347 343 340 336 341 340 344 347 344 343 343 337 336 336 335 335 335 334 333 333 333 333 333 334
365 364 361 363 364 362 360 359 352 352 351 348 347 348 348 345 341 341 341 341 341 339 333 337 337 339 340 340 343 344 336 335 335 334 334 333 332 331 330 330 330 330 331
363 363 364 360 356 355 356 354 352 350 348 347 345 343 343 346 337 336 337 337 337 338 333 333 338 339 340 337 338 341 339 337 333 335 334 333 331 330 328 327 327 327 328
364 361 359 357 354 352 352 350 347 345 343 340 340 341 339 337 342 343 335 341 338 341 335 335 334 330 334 335 336 338 335 330 334 333 333 332 330 329 328 327 326 325 323
361 358 354 353 351 349 348 347 346 343 340 339 339 339 338 337 337 333 333 331 330 329 331 327 325 326 327 328 331 333 334 334 329 333 333 332 331 330 328 325 325 323 321
356 353 352 351 347 347 346 344 343 341 340 339 338 337 336 336 335 335 331 336 335 330 330 324 323 324 325 332 328 323 322 327 326 324 329 332 331 331 328 326 325 324 322
353 352 350 348 346 342 339 341 340 339 338 337 335 331 330 331 330 329 328 332 337 330 327 324 323 325 324 323 324 324 321 322 330 326 324 326 326 325 323 323 325 323 323
350 350 347 345 341 336 333 336 339 336 336 335 331 332 333 332 328 329 330 328 328 328 328 324 322 324 325 324 324 323 320 320 317 328 324 322 324 322 324 321 322 322 321
348 346 345 342 338 336 330 330 334 331 329 332 332 330 326 329 334 332 328 328 327 325 327 328 324 322 321 322 325 326 327 324 320 322 326 315 321 321 323 320 322 321 320
346 344 341 340 336 332 327 327 330 330 331 331 331 331 331 332 328 329 327 326 324 321 321 320 322 320 320 322 325 326 329 330 325 325 328 313 318 318 321 323 323 321 319
343 340 340 338 334 331 324 325 329 328 328 329 330 331 327 324 322 323 327 324 324 324 317 319 319 318 318 319 320 319 315 314 313 317 319 314 316 317 318 322 324 321 319
340 337 337 335 329 332 321 321 323 326 326 325 327 328 320 322 320 319 326 324 321 320 321 324 324 321 321 322 323 324 318 313 313 312 318 315 315 315 312 318 320 322 319
Wind_Speed
1 5 2 5 4 2 2 3 4 5 5 6 9 12 5 10 12 5 3 11 13 13 12 12 13 12 14 15 16 17 15 16 17 18 19 13 15 10 12 14 18 22 19
2 2 4 3 2 4 9 6 7 8 8 6 5 8 12 12 8 6 8 7 15 13 11 9 9 10 9 15 17 18 17 18 20 22 21 15 18 18 20 19 20 24 23
2 7 1 5 4 6 6 4 4 5 7 7 9 5 6 3 11 7 8 9 6 10 10 9 7 7 8 10 16 16 16 15 19 21 21 21 21 22 21 21 23 24 26
1 5 4 2 7 8 3 3 5 7 7 8 7 6 5 3 4 6 5 6 6 6 9 9 7 7 6 7 9 9 9 12 14 17 18 20 24 24 24 23 21 26 25
2 6 4 3 5 7 6 6 7 10 6 9 9 6 6 3 2 5 3 3 6 7 4 8 9 11 8 4 2 5 4 7 8 12 14 16 21 23 22 23 21 21 26
2 4 5 2 7 6 6 8 9 8 6 8 12 8 7 3 1 5 6 6 4 4 6 6 6 6 9 7 4 5 6 6 6 4 9 12 16 18 18 17 18 17 21
6 4 7 4 5 6 7 9 9 8 7 7 7 9 8 4 6 1 2 3 6 10 7 6 4 5 6 13 8 10 8 7 7 8 7 7 9 14 15 12 16 17 17
9 7 6 7 7 7 8 8 7 7 7 7 7 6 4 7 2 10 5 4 5 4 7 5 6 7 9 4 15 18 15 11 11 13 13 11 6 7 10 11 14 15 16
9 9 9 8 8 7 9 8 7 8 5 6 7 4 6 5 10 1 6 4 8 5 7 1 14 5 13 12 13 14 19 17 15 15 14 13 11 6 3 8 10 12 15
11 11 10 8 8 8 9 7 6 6 5 7 4 4 3 6 3 8 5 4 8 2 5 9 11 10 11 8 17 18 19 19 18 17 16 15 12 9 4 9 12 13 16
10 12 7 8 8 6 6 6 6 6 5 7 7 5 5 4 4 6 7 8 3 3 8 10 7 7 13 12 11 15 19 19 20 19 19 19 18 15 13 14 6 14 17
8 9 8 8 7 5 6 3 5 7 5 7 5 5 3 4 5 8 8 10 5 10 10 9 7 11 7 8 15 19 20 20 19 19 19 20 20 20 19 19 18 17 11
6 2 4 5 4 5 4 4 6 6 4 4 5 4 3 4 7 8 5 6 5 4 5 8 7 6 8 8 10 16 19 19 19 18 18 19 20 20 20 21 21 20 20
2 1 2 3 5 3 3 3 2 3 4 3 4 5 8 4 4 5 7 6 7 4 8 5 8 8 7 8 9 16 10 14 17 16 17 18 20 21 21 22 21 22 21
3 6 3 3 4 4 3 2 5 6 5 5 5 8 7 10 2 4 3 5 6 2 4 4 4 8 4 6 6 7 10 12 17 16 15 16 16 18 19 19 20 19 19
1 2 2 2 6 6 5 3 3 7 5 6 8 7 7 6 5 5 4 4 5 5 1 6 3 8 8 5 6 4 12 13 17 12 12 13 14 17 18 19 20 20 20
2 4 5 7 6 5 6 7 6 5 6 7 7 8 7 7 8 7 7 6 5 3 6 5 8 8 7 8 8 9 12 10 10 11 11 11 11 14 17 18 18 19 19
5 6 8 5 6 5 5 7 7 6 7 8 8 8 9 7 7 9 6 6 7 6 4 7 6 7 7 6 4 6 8 9 10 8 9 11 9 11 13 14 15 16 16
6 7 7 5 6 5 7 7 7 6 8 8 8 8 9 9 9 7 9 8 6 7 6 5 6 6 7 7 6 4 4 6 7 12 8 11 11 7 11 15 14 15 14
6 7 5 5 7 7 7 7 7 6 8 9 9 10 10 11 10 7 9 6 6 3 3 5 6 6 7 7 8 7 7 5 5 8 5 7 12 10 10 15 14 13 12
6 7 6 7 7 7 6 7 6 7 7 8 9 10 11 12 15 17 9 9 9 9 7 5 6 7 7 6 7 7 7 8 5 7 8 3 5 8 7 12 12 10 11
7 9 8 7 6 7 9 8 2 7 7 8 9 9 8 11 12 11 11 14 11 8 8 7 6 6 8 7 8 8 8 7 7 7 7 8 6 6 6 8 9 8 9
11 9 9 7 7 8 6 7 10 7 7 6 6 5 7 6 3 7 6 10 10 9 8 6 7 8 8 8 7 9 6 7 6 3 5 8 7 6 6 7 9 8 8
11 9 9 9 8 7 4 3 5 8 8 7 7 7 7 7 8 9 4 5 7 8 8 8 8 6 6 7 7 9 5 9 2 9 8 8 9 8 7 6 10 8 7
10 9 9 9 9 9 4 5 5 9 8 7 7 7 8 7 8 11 4 4 4 4 3 5 5 5 4 3 5 7 7 7 7 7 10 8 7 9 9 1 7 9 6
10 9 10 9 9 10 7 9 7 8 8 7 7 7 13 7 5 8 3 2 2 4 4 7 8 8 8 8 1 7 8 8 7 5 10 8 9 9 8 8 5 7 2
Wind_Direction
99 234 153 275 327 289 310 263 321 338 306 318 326 345 320 274 278 335 23 163 193 190 208 227 244 253 224 222 222 221 215 213 230 229 244 245 259 269 258 251 222 208 231
186 186 215 270 286 327 357 336 359 326 304 286 338 327 330 331 326 337 350 210 188 187 198 223 240 259 247 229 230 228 227 220 220 225 228 222 233 236 231 233 220 210 212
152 310 192 301 2 331 227 21 306 270 329 329 299 308 261 320 308 350 298 355 166 175 188 195 219 252 262 262 242 243 242 231 225 225 228 223 223 236 233 237 218 216 206
278 253 245 321 32 279 358 298 315 320 326 310 323 314 302 272 322 252 14 348 11 340 179 168 188 223 249 271 273 263 244 238 240 236 237 229 224 233 232 231 237 213 218
150 290 294 10 316 293 324 313 346 336 323 318 303 297 280 6 292 351 6 344 35 350 17 170 196 203 209 233 285 302 296 255 277 247 240 237 230 239 244 230 230 236 211
275 294 301 334 297 314 329 350 318 317 311 304 305 323 287 344 240 21 9 4 347 301 7 332 311 160 188 161 103 44 17 348 340 305 245 244 240 245 235 238 221 229 224
263 264 290 315 296 316 340 308 309 308 285 282 321 309 1 3 283 297 167 355 17 27 5 342 310 354 195 77 95 70 43 29 15 1 345 295 264 233 242 232 212 217 225
252 255 263 299 309 316 303 300 308 318 301 353 295 343 303 334 53 244 81 272 40 351 51 15 15 37 74 131 58 51 33 25 26 15 7 5 351 262 234 204 215 226 226
242 251 264 278 293 290 295 331 304 300 314 308 280 276 317 20 332 206 219 286 83 45 1 310 43 56 47 42 40 32 30 29 20 14 11 11 18 358 239 229 218 223 221
236 252 260 275 280 290 320 311 312 306 278 307 329 22 320 337 334 337 358 148 92 39 31 35 51 60 58 60 58 40 40 39 35 30 24 19 17 12 317 250 242 227 228
218 243 252 261 277 295 280 280 300 337 310 326 345 326 324 321 244 262 312 42 89 61 66 70 64 49 47 57 47 43 41 41 41 38 37 33 35 33 24 17 335 249 247
194 213 226 252 290 289 292 295 329 302 334 334 340 338 330 332 332 301 322 12 41 79 65 56 25 57 55 70 70 50 43 41 37 36 38 39 39 37 34 34 31 26 16
229 243 268 258 293 301 315 330 321 351 358 358 2 339 341 273 354 4 14 334 301 74 84 75 51 53 59 56 65 66 48 49 48 45 45 47 48 47 44 39 37 36 36
214 283 241 283 264 288 351 10 360 346 26 39 47 20 312 26 5 1 24 346 342 88 68 61 36 57 57 57 69 80 67 56 53 43 42 41 41 42 43 43 43 42 38
233 220 260 326 284 40 68 92 67 32 352 0 19 17 330 41 14 51 31 31 340 358 66 69 76 32 9 65 22 85 85 73 66 49 43 41 42 43 43 41 39 38 36
303 121 151 95 75 73 59 347 69 52 33 7 52 44 5 3 34 23 31 67 33 355 32 91 60 58 7 23 61 140 118 100 91 75 60 50 50 49 45 41 37 32 31
157 99 82 86 92 83 72 74 75 61 63 61 59 53 57 21 12 39 24 25 64 330 85 102 108 56 56 28 16 1 161 115 98 103 90 72 62 58 50 41 37 33 31
108 87 95 99 92 84 77 72 55 76 75 68 63 61 46 36 39 9 83 51 31 36 48 77 12 89 48 62 28 51 339 18 108 127 124 105 79 67 67 48 36 30 29
112 107 93 111 103 121 107 93 96 93 83 77 70 64 57 60 47 50 36 18 55 30 32 58 84 42 73 11 18 69 55 54 63 146 157 133 122 119 96 71 45 27 22
104 104 123 138 141 123 111 113 109 107 101 82 69 61 53 48 35 32 46 54 13 70 71 64 59 53 28 49 4 12 21 55 33 18 24 122 146 161 129 103 75 51 29
124 131 149 143 129 134 124 129 125 115 103 93 90 91 74 69 55 43 45 39 13 18 22 48 49 56 33 11 17 358 16 348 127 48 344 358 126 158 146 88 97 72 70
148 168 149 144 171 91 57 24 79 116 114 115 118 116 120 110 79 73 77 69 47 32 48 7 44 43 42 12 14 350 9 352 346 62 349 335 28 347 97 94 105 106 90
162 161 148 144 106 119 64 31 342 117 115 115 127 138 120 100 135 117 128 122 86 42 10 44 49 32 36 10 350 329 2 317 319 8 27 346 335 357 26 121 151 145 114
162 155 149 133 132 114 114 87 67 118 108 98 91 80 79 69 36 5 52 60 73 62 38 45 53 44 53 13 349 304 353 290 295 72 13 349 338 347 355 145 177 122 111
159 158 145 143 143 142 180 222 255 134 123 117 106 64 101 81 15 357 24 48 60 87 128 109 116 170 188 270 359 350 358 352 359 61 28 331 353 344 350 346 136 132 178
160 152 142 151 144 154 201 239 267 134 150 132 125 104 56 85 42 14 24 46 105 83 6 170 206 224 218 222 129 31 358 357 359 349 31 335 355 352 340 356 133 162 129